• In France
  • List of Countries
  • For 7 days
  • Water Temperature
  • Satellite Maps
  • Weather Map
  • Weather Widgets
  • user-avatar
    Login

    Hourly Weather Hamar

    Today, 21 August, Tuesday

    Time Temperature Precipitation Wind Pressure Humidity
    00:00 +8°C° 0 mm 2 mps 599 mmHg 82%
    01:00 +8°C° 0 mm 2 mps 599 mmHg 81%
    02:00 +7°C° 0 mm 2 mps 598 mmHg 80%
    03:00 +7°C° 0 mm 2 mps 598 mmHg 81%
    04:00 +8°C° 0 mm 2 mps 598 mmHg 80%
    05:00 +8°C° 0 mm 2 mps 598 mmHg 79%
    06:00 +8°C° 0 mm 2 mps 599 mmHg 78%
    07:00 +12°C° 0 mm 2 mps 600 mmHg 70%
    08:00 +14°C° 0 mm 2 mps 601 mmHg 62%
    09:00 +16°C° 0 mm 2 mps 601 mmHg 54%
    10:00 +17°C° 0 mm 2 mps 602 mmHg 52%
    11:00 +18°C° 0 mm 2 mps 602 mmHg 49%
    12:00 +19°C° 0 mm 2 mps 602 mmHg 47%
    13:00 +19°C° 0.2 mm 2 mps 602 mmHg 48%
    14:00 +19°C° 0.2 mm 2 mps 602 mmHg 49%
    15:00 +19°C° 0.2 mm 2 mps 601 mmHg 50%
    16:00 +18°C° 0.1 mm 2 mps 601 mmHg 55%
    17:00 +18°C° 0.1 mm 1 mps 601 mmHg 59%
    18:00 +16°C° 0.1 mm 1 mps 600 mmHg 64%
    19:00 +15°C° 0 mm 1 mps 600 mmHg 66%
    20:00 +13°C° 0 mm 1 mps 599 mmHg 69%
    21:00 +10°C° 0 mm 2 mps 598 mmHg 71%
    22:00 +10°C° 0 mm 2 mps 598 mmHg 69%
    23:00 +10°C° 0 mm 2 mps 598 mmHg 67%

    Tomorrow, 22 August, Wednesday

    Time Temperature Precipitation Wind Pressure Humidity
    00:00 +10°C° 0 mm 2 mps 598 mmHg 65%
    01:00 +9°C° 0 mm 2 mps 598 mmHg 62%
    02:00 +9°C° 0 mm 2 mps 598 mmHg 59%
    03:00 +10°C° 0 mm 1 mps 598 mmHg 57%
    04:00 +11°C° 0 mm 1 mps 598 mmHg 58%
    05:00 +11°C° 0 mm 1 mps 598 mmHg 59%
    06:00 +12°C° 0 mm 1 mps 599 mmHg 60%
    07:00 +13°C° 0.1 mm 1 mps 599 mmHg 57%
    08:00 +15°C° 0.1 mm 1 mps 600 mmHg 53%
    09:00 +16°C° 0.1 mm 1 mps 600 mmHg 50%
    10:00 +19°C° 0 mm 1 mps 601 mmHg 48%
    11:00 +19°C° 0 mm 2 mps 601 mmHg 47%
    12:00 +20°C° 0 mm 2 mps 601 mmHg 45%
    13:00 +20°C° 0.3 mm 2 mps 601 mmHg 47%
    14:00 +20°C° 0.3 mm 2 mps 601 mmHg 50%
    15:00 +20°C° 0.3 mm 2 mps 601 mmHg 52%
    16:00 +19°C° 0.4 mm 2 mps 600 mmHg 58%
    17:00 +18°C° 0.4 mm 1 mps 600 mmHg 63%
    18:00 +16°C° 0.4 mm 1 mps 600 mmHg 69%
    19:00 +15°C° 0.3 mm 1 mps 599 mmHg 72%
    20:00 +14°C° 0.3 mm 1 mps 599 mmHg 76%
    21:00 +13°C° 0.3 mm 1 mps 599 mmHg 79%
    22:00 +13°C° 0.1 mm 1 mps 599 mmHg 79%
    23:00 +12°C° 0.1 mm 1 mps 599 mmHg 79%

    Day after tomorrow, 23 August, Thursday

    Time Temperature Precipitation Wind Pressure Humidity
    00:00 +12°C° 0.1 mm 1 mps 599 mmHg 79%
    01:00 +11°C° 0 mm 1 mps 599 mmHg 80%
    02:00 +11°C° 0 mm 1 mps 599 mmHg 80%
    03:00 +11°C° 0 mm 1 mps 599 mmHg 80%
    04:00 +11°C° 0 mm 1 mps 599 mmHg 80%
    05:00 +11°C° 0 mm 1 mps 599 mmHg 79%
    06:00 +12°C° 0 mm 1 mps 599 mmHg 79%
    07:00 +14°C° 0 mm 1 mps 600 mmHg 73%
    08:00 +15°C° 0 mm 1 mps 601 mmHg 67%
    09:00 +18°C° 0 mm 1 mps 602 mmHg 61%
    10:00 +18°C° 0.2 mm 2 mps 602 mmHg 58%
    11:00 +19°C° 0.2 mm 2 mps 602 mmHg 56%
    12:00 +19°C° 0.2 mm 2 mps 602 mmHg 54%
    13:00 +19°C° 0.5 mm 2 mps 602 mmHg 54%
    14:00 +19°C° 0.5 mm 2 mps 602 mmHg 53%
    15:00 +19°C° 0.5 mm 2 mps 602 mmHg 53%
    16:00 +18°C° 0.2 mm 2 mps 601 mmHg 56%
    17:00 +18°C° 0.2 mm 1 mps 601 mmHg 60%
    18:00 +16°C° 0.2 mm 1 mps 601 mmHg 63%
    19:00 +15°C° 0 mm 1 mps 600 mmHg 66%
    20:00 +13°C° 0 mm 1 mps 600 mmHg 69%
    21:00 +12°C° 0 mm 1 mps 600 mmHg 73%
    22:00 +12°C° 0 mm 1 mps 600 mmHg 71%
    23:00 +11°C° 0 mm 1 mps 600 mmHg 70%

    24 August, Friday

    Time Temperature Precipitation Wind Pressure Humidity
    00:00 +11°C° 0 mm 1 mps 599 mmHg 69%
    01:00 +11°C° 0 mm 1 mps 599 mmHg 69%
    02:00 +10°C° 0 mm 1 mps 599 mmHg 69%
    03:00 +10°C° 0 mm 1 mps 599 mmHg 69%
    04:00 +11°C° 0 mm 1 mps 599 mmHg 70%
    05:00 +11°C° 0 mm 1 mps 599 mmHg 70%
    06:00 +11°C° 0 mm 1 mps 600 mmHg 71%
    07:00 +13°C° 0 mm 1 mps 601 mmHg 65%
    08:00 +15°C° 0 mm 1 mps 601 mmHg 59%
    09:00 +17°C° 0 mm 2 mps 602 mmHg 53%
    10:00 +18°C° 0 mm 2 mps 602 mmHg 53%
    11:00 +19°C° 0 mm 2 mps 602 mmHg 52%
    12:00 +19°C° 0 mm 2 mps 602 mmHg 51%
    13:00 +19°C° 0.2 mm 2 mps 602 mmHg 52%
    14:00 +19°C° 0.2 mm 2 mps 602 mmHg 52%
    15:00 +19°C° 0.2 mm 2 mps 602 mmHg 53%
    16:00 +18°C° 0.1 mm 2 mps 601 mmHg 57%
    17:00 +17°C° 0.1 mm 2 mps 601 mmHg 61%
    18:00 +16°C° 0.1 mm 1 mps 600 mmHg 64%
    19:00 +15°C° 0 mm 1 mps 600 mmHg 66%
    20:00 +13°C° 0 mm 1 mps 600 mmHg 67%
    21:00 +12°C° 0 mm 2 mps 599 mmHg 69%
    22:00 +10°C° 0 mm 2 mps 599 mmHg 67%
    23:00 +10°C° 0 mm 2 mps 599 mmHg 66%

    25 August, Saturday

    Time Temperature Precipitation Wind Pressure Humidity
    00:00 +10°C° 0 mm 2 mps 599 mmHg 65%
    01:00 +10°C° 0 mm 1 mps 598 mmHg 66%
    02:00 +10°C° 0 mm 1 mps 598 mmHg 67%
    03:00 +10°C° 0 mm 1 mps 598 mmHg 68%
    04:00 +10°C° 0 mm 1 mps 598 mmHg 68%
    05:00 +11°C° 0 mm 1 mps 598 mmHg 69%
    06:00 +11°C° 0 mm 1 mps 598 mmHg 69%
    07:00 +13°C° 0 mm 1 mps 599 mmHg 63%
    08:00 +15°C° 0 mm 2 mps 600 mmHg 56%
    09:00 +18°C° 0 mm 2 mps 601 mmHg 49%
    10:00 +19°C° 0 mm 2 mps 601 mmHg 48%
    11:00 +20°C° 0 mm 2 mps 602 mmHg 47%
    12:00 +20°C° 0 mm 2 mps 602 mmHg 46%
    13:00 +20°C° 0 mm 2 mps 602 mmHg 47%
    14:00 +20°C° 0 mm 2 mps 601 mmHg 48%
    15:00 +20°C° 0 mm 2 mps 601 mmHg 49%
    16:00 +19°C° 0 mm 2 mps 601 mmHg 53%
    17:00 +18°C° 0 mm 2 mps 600 mmHg 57%
    18:00 +18°C° 0 mm 1 mps 600 mmHg 61%
    19:00 +15°C° 0 mm 2 mps 599 mmHg 62%
    20:00 +14°C° 0 mm 2 mps 599 mmHg 63%
    21:00 +12°C° 0 mm 2 mps 599 mmHg 64%
    22:00 +12°C° 0 mm 2 mps 598 mmHg 63%
    23:00 +10°C° 0 mm 2 mps 598 mmHg 62%

    26 August, Sunday

    Time Temperature Precipitation Wind Pressure Humidity
    00:00 +10°C° 0 mm 2 mps 598 mmHg 60%
    01:00 +9°C° 0 mm 2 mps 597 mmHg 61%
    02:00 +9°C° 0 mm 2 mps 597 mmHg 61%
    03:00 +9°C° 0 mm 2 mps 597 mmHg 61%
    04:00 +9°C° 0 mm 2 mps 597 mmHg 62%
    05:00 +10°C° 0 mm 2 mps 597 mmHg 62%
    06:00 +10°C° 0 mm 2 mps 597 mmHg 62%
    07:00 +13°C° 0 mm 2 mps 598 mmHg 56%
    08:00 +16°C° 0 mm 2 mps 599 mmHg 49%
    09:00 +18°C° 0 mm 2 mps 600 mmHg 43%
    10:00 +19°C° 0 mm 2 mps 600 mmHg 41%
    11:00 +21°C° 0 mm 2 mps 600 mmHg 39%
    12:00 +23°C° 0 mm 2 mps 600 mmHg 37%
    13:00 +23°C° 0 mm 2 mps 600 mmHg 37%
    14:00 +23°C° 0 mm 2 mps 600 mmHg 37%
    15:00 +23°C° 0 mm 2 mps 600 mmHg 38%
    16:00 +20°C° 0 mm 2 mps 599 mmHg 42%
    17:00 +19°C° 0 mm 2 mps 598 mmHg 47%
    18:00 +18°C° 0 mm 1 mps 598 mmHg 52%
    19:00 +16°C° 0 mm 2 mps 597 mmHg 51%
    20:00 +14°C° 0 mm 2 mps 597 mmHg 49%
    21:00 +13°C° 0 mm 2 mps 596 mmHg 48%
    22:00 +12°C° 0 mm 2 mps 596 mmHg 45%
    23:00 +12°C° 0 mm 2 mps 596 mmHg 43%
    Show more